Location: 22
(39.7117°N, 89.5929°W)
Time: 06:45:45
(UTC-05:00)

deb Explorer IX - Pass Details

Date: 27 April 2025
Orbit: 386 x 450 km, 38.6° (Epoch: 05 May)

Event Time Altitude Azimuth Distance (km) Brightness Sun altitude
Rises 20:57:12 0° 274° (W) 2,330 ? -12.7°
Reaches altitude 10° 20:59:36 10° 259° (WSW) 1,448 ? -13.1°
Maximum altitude 21:02:14 22° 205° (SSW) 908 ? -13.5°
Enters shadow 21:03:34 17° 170° (S) 1,065 ? -13.7°
